[[{"header":{"parameterUnit":"m.s-1","parameterCategory":1,"la1":30.2991,"la2":30.254,"lo1":-89.0895,"lo2":-89.0444,"dy":0.0017,"dx":0.0017,"nx":28,"ny":28,"refTime":"2024-06-03T21:00:00:Z","depth":0,"parameterNumber":2,"parameterNumberName":"U-component_of_WINDS"},"data":[0,0,0,0,0,0,0,0,0,0,0,0,0,0,0,0,0,0,0,0,0,0,0,0,0,0,0,0,0,0,0,0,0,0,0,0,0,0,0,0,0,0,0,0,0,0,0,0,0,0,0,0,0,0,0,0,0,0,-2.1089,-2.1089,0,-2.1111,-2.1112,-2.1112,-2.1089,-2.1088,-2.1087,-2.1087,-2.111,-2.1111,-2.1113,0,0,0,0,0,0,0,0,0,0,0,0,0,-2.1028,-2.1029,-2.1089,-2.109,-2.109,-2.1111,-2.1112,-2.1112,-2.1089,-2.1088,-2.1087,-2.1086,-2.1109,-2.1111,-2.1113,0,0,0,0,0,0,0,0,0,0,0,0,0,-2.1053,-2.103,-2.1089,-2.1081,-2.1081,-2.1111,-2.1112,-2.1112,-2.109,-2.1088,-2.1087,-2.1086,-2.1109,-2.1111,-2.1113,-2.1153,0,0,-2.112,-2.1121,0,0,0,0,0,0,0,0,-2.1052,-2.1055,-2.1082,-2.1082,-2.1081,-2.1096,-2.1099,-2.1126,-2.109,-2.1086,-2.1087,-2.1085,-2.1106,-2.1109,-2.1116,-2.1154,-2.1155,-2.112,-2.1121,-2.1122,-2.1123,0,0,0,0,0,0,0,-2.105,-2.1054,-2.1098,-2.1082,-2.1082,-2.1077,-2.1079,-2.1104,-2.1103,-2.1086,-2.1085,-2.1088,-2.1106,-2.1114,-2.1116,-2.1155,-2.112,-2.1122,-2.1123,-2.1124,-2.1228,-2.1229,0,0,0,0,0,0,-2.1049,-2.1053,-2.1097,-2.1099,-2.1063,-2.1079,-2.1081,-2.1093,-2.1103,-2.1103,-2.1089,-2.1087,-2.1111,-2.1114,-2.1117,-2.1164,-2.1122,-2.1124,-2.1125,-2.1227,-2.1228,-2.123,0,0,0,0,0,0,-2.1048,-2.1053,-2.1096,-2.1075,-2.108,-2.1081,-2.1095,-2.1094,-2.1102,-2.1105,-2.1105,-2.1097,-2.111,-2.1114,-2.1144,-2.1165,-2.1125,-2.1127,-2.1225,-2.1227,-2.1229,-2.126,0,0,0,0,0,0,-2.1046,-2.1053,-2.1068,-2.1076,-2.1082,-2.1123,-2.1096,-2.1095,-2.1105,-2.1103,-2.1112,-2.1113,-2.1109,-2.1141,-2.1146,-2.1167,-2.1129,-2.1223,-2.1226,-2.1228,-2.1257,-2.1263,-2.1268,0,0,0,0,0,-2.1044,-2.1076,-2.1069,-2.1074,-2.11,-2.1124,-2.1128,-2.1123,-2.1107,-2.1122,-2.1125,-2.1112,-2.1162,-2.1144,-2.115,-2.1172,-2.1222,-2.1225,-2.1228,-2.1255,-2.1262,-2.1268,0,0,0,0,0,0,-2.107,-2.1077,-2.1069,-2.1104,-2.1114,-2.1121,-2.114,-2.113,-2.1145,-2.1142,-2.1135,-2.1137,-2.117,-2.1174,-2.1154,-2.1211,-2.1189,-2.1194,-2.1207,-2.1214,-2.122,-2.1218,-2.113,0,0,0,0,0,-2.108,-2.1099,-2.1103,-2.1134,-2.1139,-2.1139,-2.1149,-2.1144,-2.1154,-2.1158,-2.1163,-2.1173,-2.1191,-2.1203,-2.1219,-2.1258,-2.126,-2.1276,-2.1281,-2.1285,-2.1289,-2.131,-2.1317,-2.1241,-2.1241,-2.1241,0,0,-2.1101,-2.1106,-2.1119,-2.114,-2.1147,-2.1167,-2.1142,-2.1164,-2.1179,-2.1162,-2.1191,-2.1194,-2.1206,-2.124,-2.1256,-2.1245,-2.1311,-2.129,-2.1293,-2.1295,-2.1314,-2.1322,-2.1328,-2.1243,-2.1243,-2.1242,0,0,-2.1148,-2.1154,-2.1181,-2.1188,-2.1199,-2.1199,-2.1205,-2.1213,-2.1215,-2.1244,-2.1231,-2.1249,-2.128,-2.1288,-2.1297,-2.1348,-2.1338,-2.1354,-2.1382,-2.1402,-2.1408,-2.1414,-2.1432,-2.1439,-2.1358,-2.1358,-2.1358,0,-2.1172,-2.1202,-2.1195,-2.1218,-2.1228,-2.1213,-2.124,-2.1248,-2.1264,-2.1271,-2.1258,-2.1297,-2.1303,-2.134,-2.1352,-2.136,-2.1367,-2.1353,-2.1408,-2.1413,-2.1418,-2.1436,-2.1443,-2.136,-2.136,-2.1359,-2.1359,0,-2.1231,-2.1251,-2.1271,-2.1287,-2.1299,-2.1324,-2.1322,-2.1335,-2.1329,-2.133,-2.136,-2.1367,-2.1385,-2.1393,-2.1388,-2.1429,-2.1422,-2.1409,-2.1387,-2.1428,-2.1444,-2.145,-2.1363,-2.1362,-2.1361,-2.1361,0,0,-2.1295,-2.1307,-2.1315,-2.1322,-2.1333,-2.1349,-2.1373,-2.1391,-2.1402,-2.1414,-2.1434,-2.1461,-2.1449,-2.1458,-2.1454,-2.1472,-2.1512,-2.1457,-2.1457,-2.1467,-2.1558,-2.1568,-2.1576,-2.1505,-2.1507,-2.1508,-2.1557,0,-2.1343,-2.1385,-2.138,-2.142,-2.144,-2.1426,-2.1447,-2.1457,-2.1458,-2.1475,-2.1477,-2.1496,-2.1478,-2.1484,-2.1501,-2.1504,-2.1531,-2.15,-2.1524,-2.1525,-2.1522,-2.1584,-2.1594,-2.1641,-2.1564,-2.1565,-2.1565,0,-2.1405,-2.1418,-2.146,-2.1469,-2.1477,-2.1496,-2.1511,-2.1527,-2.1538,-2.1538,-2.1549,-2.1541,-2.1566,-2.1543,-2.1577,-2.1557,-2.1567,-2.157,-2.1571,-2.1573,-2.1548,-2.1588,-2.1655,-2.1662,-2.1575,-2.1575,-2.1574,0,-2.1447,-2.1477,-2.1505,-2.1512,-2.1522,-2.1536,-2.1541,-2.155,-2.1561,-2.1575,-2.1582,-2.1599,-2.1608,-2.1621,-2.1619,-2.1603,-2.1654,-2.1631,-2.1654,-2.1655,-2.1666,-2.1665,-2.1736,-2.1672,-2.1672,-2.1672,-2.1672,0,-2.1501,-2.1528,-2.1525,-2.1542,-2.1572,-2.1566,-2.1595,-2.1599,-2.1607,-2.1625,-2.1615,-2.1632,-2.1628,-2.1645,-2.1644,-2.1672,-2.1676,-2.1677,-2.1676,-2.1678,-2.1678,-2.1684,-2.1681,-2.1674,-2.1673,-2.1673,-2.1673,0,-2.1554,-2.1553,-2.1584,-2.1591,-2.1594,-2.1615,-2.1622,-2.1639,-2.1639,-2.1663,-2.1668,-2.1669,-2.1689,-2.1688,-2.1711,-2.171,-2.1745,-2.174,-2.1741,-2.174,-2.1764,-2.1762,-2.1841,-2.1852,-2.1782,-2.1782,-2.1783,0,-2.1589,-2.1608,-2.1618,-2.163,-2.1636,-2.1654,-2.1665,-2.1661,-2.1673,-2.1686,-2.1702,-2.1721,-2.1736,-2.1769,-2.1772,-2.1789,-2.1785,-2.1812,-2.1787,-2.1789,-2.1785,-2.1784,-2.1786,-2.1816,-2.1817,-2.1818,-2.1818,0,-2.165,-2.1648,-2.1665,-2.1681,-2.1694,-2.1707,-2.1718,-2.1728,-2.1725,-2.1739,-2.176,-2.1771,-2.1794,-2.1814,-2.183,-2.1836,-2.1827,-2.1826,-2.1832,-2.1834,-2.1834,-2.1834,-2.1754,-2.1824,-2.1823,-2.1823,-2.1823,-2.1822,-2.1695,-2.1712,-2.1721,-2.1739,-2.1748,-2.1759,-2.1775,-2.1778,-2.1795,-2.1813,-2.1809,-2.1832,-2.1843,-2.1864,-2.1871,-2.1889,-2.188,-2.1889,-2.1891,-2.1894,-2.1896,-2.1831,-2.1892,-2.1892,-2.1892,-2.1892,-2.1892,0,-2.1755,-2.1761,-2.1778,-2.1794,-2.1809,-2.1799,-2.1811,-2.1824,-2.1844,-2.1854,-2.1869,-2.1893,-2.1911,-2.1916,-2.1934,-2.1948,-2.1944,-2.1952,-2.1951,-2.1953,-2.1904,-2.1896,-2.1955,-2.1955,-2.1955,-2.1955,-2.1955,-2.1955,-2.1789,-2.1817,-2.1817,-2.1849,-2.1854,-2.1877,-2.1884,-2.1895,-2.1903,-2.1929,-2.1945,-2.1948,-2.1956,-2.1974,-2.1991,-2.1992,-2.1999,-2.2009,-2.2009,-2.1963,-2.1956,-2.195,-2.1943,-2.2011,-2.2011,-2.2056,-2.2056,-2.2057]},{"header":{"parameterUnit":"m.s-1","parameterCategory":1,"la1":30.2991,"la2":30.254,"lo1":-89.0895,"lo2":-89.0444,"dy":0.0017,"dx":0.0017,"nx":28,"ny":28,"refTime":"2024-06-03T21:00:00:Z","depth":0,"parameterNumber":3,"parameterNumberName":"V-component_of_WINDS"},"data":[0,0,0,0,0,0,0,0,0,0,0,0,0,0,0,0,0,0,0,0,0,0,0,0,0,0,0,0,0,0,0,0,0,0,0,0,0,0,0,0,0,0,0,0,0,0,0,0,0,0,0,0,0,0,0,0,0,0,3.0132,3.0132,0,3.0143,3.0143,3.0143,3.0108,3.0107,3.0105,3.0104,3.0114,3.0116,3.0117,0,0,0,0,0,0,0,0,0,0,0,0,0,3.0078,3.008,3.0131,3.0132,3.0132,3.0143,3.0143,3.0143,3.0108,3.0106,3.0105,3.0104,3.0114,3.0115,3.0117,0,0,0,0,0,0,0,0,0,0,0,0,0,3.0097,3.008,3.0131,3.0116,3.0114,3.0143,3.0143,3.0143,3.0108,3.0106,3.0105,3.0103,3.0113,3.0115,3.0117,3.0161,0,0,3.0123,3.0124,0,0,0,0,0,0,0,0,3.0096,3.0099,3.0118,3.0117,3.0115,3.0122,3.0128,3.0149,3.0108,3.011,3.0104,3.0103,3.0118,3.012,3.0125,3.0161,3.0162,3.0123,3.0124,3.0125,3.0126,0,0,0,0,0,0,0,3.0094,3.0098,3.0136,3.0118,3.0117,3.0107,3.0108,3.0132,3.0123,3.011,3.0108,3.0109,3.0117,3.0123,3.0125,3.0162,3.0123,3.0125,3.0126,3.0127,3.0235,3.0236,0,0,0,0,0,0,3.0095,3.0097,3.0135,3.0136,3.0101,3.011,3.0111,3.0122,3.0123,3.0121,3.0111,3.0108,3.0121,3.0123,3.0125,3.0177,3.0125,3.0127,3.0128,3.0233,3.0235,3.0237,0,0,0,0,0,0,3.0094,3.0099,3.0135,3.0116,3.012,3.0112,3.0125,3.0123,3.0129,3.0123,3.0121,3.0119,3.012,3.0123,3.0152,3.0176,3.0128,3.0129,3.0231,3.0234,3.0236,3.0279,0,0,0,0,0,0,3.0093,3.0099,3.0116,3.0117,3.0121,3.0162,3.0126,3.0124,3.0132,3.0128,3.013,3.0129,3.0119,3.015,3.0154,3.0178,3.0131,3.0229,3.0232,3.0235,3.0276,3.0283,3.029,0,0,0,0,0,3.0091,3.0127,3.0117,3.0122,3.0142,3.0164,3.0166,3.0154,3.0134,3.0151,3.0148,3.0129,3.0173,3.0153,3.0158,3.0183,3.0227,3.0231,3.0235,3.0273,3.0282,3.0289,0,0,0,0,0,0,3.0129,3.0127,3.0116,3.0153,3.0159,3.0158,3.0178,3.0164,3.0175,3.0171,3.0155,3.0156,3.0189,3.0188,3.0166,3.0225,3.0197,3.0202,3.0224,3.0232,3.0239,3.0238,3.0132,0,0,0,0,0,3.0142,3.016,3.0157,3.0191,3.0194,3.0186,3.0195,3.0185,3.0191,3.0193,3.0191,3.0197,3.0212,3.0222,3.0236,3.0276,3.0276,3.0295,3.0302,3.0308,3.0312,3.0333,3.0342,3.025,3.025,3.025,0,0,3.0168,3.0169,3.0182,3.0198,3.0202,3.0221,3.0188,3.021,3.0224,3.0196,3.0224,3.0223,3.0228,3.0264,3.0279,3.0265,3.0338,3.0313,3.0317,3.0319,3.0338,3.0347,3.0355,3.0252,3.0252,3.0251,0,0,3.0225,3.0228,3.0257,3.0261,3.0267,3.0261,3.0268,3.027,3.0268,3.0296,3.0276,3.0292,3.0318,3.0323,3.0329,3.0389,3.0372,3.0394,3.0429,3.045,3.0457,3.0464,3.0485,3.0493,3.0398,3.0398,3.0398,0,3.0257,3.0285,3.0273,3.0296,3.0304,3.028,3.0308,3.0313,3.0323,3.0329,3.0312,3.0345,3.0347,3.0383,3.0398,3.0403,3.041,3.0393,3.0458,3.0464,3.047,3.049,3.0498,3.0401,3.04,3.04,3.04,0,3.0324,3.0344,3.0366,3.0377,3.0387,3.0413,3.0404,3.0415,3.0405,3.0401,3.043,3.0431,3.0445,3.0453,3.0442,3.0488,3.0478,3.046,3.0431,3.0481,3.05,3.0507,3.0404,3.0404,3.0403,3.0402,0,0,3.0405,3.0409,3.0417,3.0422,3.0427,3.0442,3.0467,3.0481,3.0491,3.0499,3.0519,3.0542,3.0525,3.0532,3.0522,3.054,3.0588,3.052,3.052,3.0532,3.0637,3.0651,3.066,3.0577,3.0579,3.058,3.0637,0,3.0462,3.0504,3.0494,3.0536,3.0554,3.0532,3.0553,3.0559,3.0556,3.057,3.0567,3.0584,3.0561,3.0564,3.0582,3.0579,3.0609,3.0574,3.0595,3.0596,3.0594,3.067,3.0684,3.0738,3.0644,3.0645,3.0646,0,3.0533,3.0545,3.0589,3.0591,3.0598,3.0618,3.063,3.0644,3.065,3.0646,3.0654,3.0641,3.0665,3.0636,3.0668,3.0645,3.0653,3.0653,3.0655,3.0656,3.0624,3.0673,3.0755,3.0763,3.0658,3.0657,3.0656,0,3.0588,3.0614,3.0644,3.0649,3.0652,3.0666,3.0668,3.0672,3.0682,3.0692,3.0698,3.0711,3.0718,3.0728,3.0718,3.0698,3.0752,3.0722,3.0749,3.075,3.0761,3.0761,3.0846,3.0767,3.0767,3.0767,3.0767,0,3.0652,3.068,3.0668,3.0687,3.0717,3.0705,3.0735,3.0734,3.0738,3.0756,3.0738,3.0754,3.0741,3.0756,3.0749,3.0777,3.078,3.0778,3.0775,3.0779,3.0779,3.0784,3.078,3.0769,3.0769,3.0768,3.0768,0,3.0718,3.0711,3.0742,3.0744,3.0745,3.0767,3.0768,3.0785,3.0781,3.0803,3.0808,3.0801,3.0819,3.081,3.0828,3.0823,3.0859,3.0852,3.0857,3.0855,3.0883,3.088,3.0973,3.0985,3.0899,3.09,3.0901,0,3.0759,3.078,3.0784,3.0795,3.0798,3.0816,3.0825,3.0814,3.0824,3.0832,3.0848,3.0864,3.0876,3.0905,3.0901,3.0915,3.0908,3.094,3.091,3.0913,3.0908,3.0907,3.0909,3.0945,3.0946,3.0947,3.0948,0,3.0833,3.0829,3.0844,3.0858,3.0869,3.088,3.0888,3.0898,3.0886,3.0899,3.0917,3.0926,3.0945,3.0961,3.0973,3.0974,3.096,3.0957,3.0964,3.0968,3.0971,3.097,3.0873,3.0955,3.0955,3.0954,3.0954,3.0953,3.0888,3.0906,3.0911,3.0928,3.0933,3.0942,3.0958,3.0956,3.0971,3.0986,3.0978,3.0999,3.1004,3.1018,3.1022,3.1038,3.1025,3.1035,3.1038,3.1041,3.1044,3.0969,3.104,3.104,3.104,3.1039,3.1039,0,3.0961,3.0964,3.0979,3.0992,3.1005,3.0991,3.0999,3.1011,3.103,3.1037,3.1049,3.107,3.1085,3.1083,3.1097,3.1111,3.1104,3.1115,3.1113,3.1114,3.1055,3.1047,3.112,3.112,3.112,3.112,3.112,3.112,3.1,3.103,3.1026,3.1058,3.106,3.1081,3.1087,3.1095,3.11,3.1124,3.1137,3.1136,3.1139,3.1153,3.1167,3.1166,3.1172,3.1185,3.1181,3.1126,3.1118,3.1111,3.1103,3.1186,3.1186,3.1239,3.124,3.124]}]]